N129DC WMKC-WMKK

Flight info

Callsign N129DC
Flight time N/A
Altitude 8500
Route DCT
Aircraft DC3/M-A/S

Departure

Time 2026-04-12 13:37
Airport Sultan Ismail Petra Airport (WMKC)

Arrival

Time N/A
Airport Kuala Lumpur International Airport (WMKK)
Time Latitude Longitude Altitude Speed Heading
2026-04-12 13:31 6.16714 102.29346 25 ft 0 kts 10°
2026-04-12 13:32 6.16701 102.29344 25 ft 2 kts 10°
2026-04-12 13:32 6.16683 102.29340 25 ft 3 kts 10°
2026-04-12 13:33 6.16663 102.29337 25 ft 3 kts 10°
2026-04-12 13:33 6.16672 102.29338 25 ft 7 kts 10°
2026-04-12 13:33 6.16689 102.29314 25 ft 6 kts 278°
2026-04-12 13:33 6.16664 102.29242 25 ft 14 kts 227°
2026-04-12 13:34 6.16583 102.29162 25 ft 19 kts 226°
2026-04-12 13:34 6.16559 102.29036 25 ft 22 kts 281°
2026-04-12 13:34 6.16593 102.28855 25 ft 29 kts 281°
2026-04-12 13:34 6.16632 102.28646 25 ft 27 kts 288°
2026-04-12 13:35 6.16720 102.28585 25 ft 11 kts 304°
2026-04-12 13:35 6.16722 102.28530 25 ft 0 kts 209°
2026-04-12 13:35 6.16721 102.28529 25 ft 2 kts 209°
2026-04-12 13:36 6.16676 102.28515 25 ft 6 kts 154°
2026-04-12 13:36 6.16654 102.28561 25 ft 16 kts 102°
2026-04-12 13:36 6.16603 102.28825 26 ft 64 kts 101°
2026-04-12 13:36 6.16494 102.29404 101 ft 96 kts 101°
2026-04-12 13:37 6.16357 102.30089 415 ft 102 kts 102°
2026-04-12 13:37 6.16038 102.30742 692 ft 116 kts 137°
2026-04-12 13:37 6.15183 102.30783 1018 ft 126 kts 185°
2026-04-12 13:37 6.14425 102.30577 1654 ft 109 kts 194°
2026-04-12 13:38 6.13853 102.29954 1846 ft 138 kts 242°
2026-04-12 13:38 6.13893 102.28969 2140 ft 149 kts 288°
2026-04-12 13:38 6.14298 102.27987 2440 ft 157 kts 284°
2026-04-12 13:38 6.14136 102.26905 2692 ft 160 kts 242°
2026-04-12 13:39 6.13324 102.26165 2970 ft 159 kts 204°
2026-04-12 13:39 6.12275 102.25780 3261 ft 163 kts 194°
2026-04-12 13:39 6.11151 102.25456 3612 ft 177 kts 193°
2026-04-12 13:39 6.09940 102.25121 3786 ft 180 kts 194°
2026-04-12 13:40 6.08727 102.24801 4035 ft 180 kts 193°
2026-04-12 13:40 6.07515 102.24498 4286 ft 179 kts 192°
2026-04-12 13:40 6.06289 102.24245 4540 ft 180 kts 191°
2026-04-12 13:40 6.05051 102.24009 4789 ft 181 kts 190°
2026-04-12 13:41 6.03810 102.23781 5039 ft 182 kts 190°
2026-04-12 13:41 6.02573 102.23558 5287 ft 182 kts 190°
2026-04-12 13:41 6.01319 102.23334 5538 ft 183 kts 190°
2026-04-12 13:41 6.00063 102.23111 5789 ft 183 kts 190°
2026-04-12 13:42 5.98805 102.22889 6040 ft 184 kts 190°
2026-04-12 13:42 5.97544 102.22667 6290 ft 184 kts 190°
2026-04-12 13:42 5.96282 102.22447 6541 ft 184 kts 190°
2026-04-12 13:42 5.95019 102.22227 6791 ft 184 kts 191°
2026-04-12 13:43 5.93751 102.22021 7041 ft 184 kts 189°
2026-04-12 13:43 5.92477 102.21861 7291 ft 184 kts 187°
2026-04-12 13:43 5.91200 102.21721 7541 ft 184 kts 187°
2026-04-12 13:43 5.89925 102.21588 7792 ft 185 kts 187°
2026-04-12 13:44 5.88644 102.21457 8043 ft 185 kts 187°
2026-04-12 13:44 5.87372 102.21327 8281 ft 186 kts 187°
2026-04-12 13:44 5.86063 102.21192 8423 ft 192 kts 187°
2026-04-12 13:44 5.84708 102.21051 8480 ft 199 kts 187°
2026-04-12 13:45 5.83306 102.20901 8491 ft 206 kts 187°
2026-04-12 13:45 5.81871 102.20746 8502 ft 209 kts 187°
2026-04-12 13:45 5.80410 102.20588 8501 ft 212 kts 187°
2026-04-12 13:45 5.78956 102.20432 8501 ft 213 kts 187°
2026-04-12 13:46 5.77477 102.20274 8500 ft 214 kts 187°
2026-04-12 13:46 5.75990 102.20117 8500 ft 215 kts 187°
2026-04-12 13:46 5.74501 102.19961 8500 ft 215 kts 187°
2026-04-12 13:46 5.73012 102.19806 8500 ft 215 kts 187°
2026-04-12 13:47 5.71520 102.19652 8500 ft 216 kts 187°
2026-04-12 13:47 5.70021 102.19497 8500 ft 217 kts 186°
2026-04-12 13:47 5.68521 102.19341 8501 ft 217 kts 186°
2026-04-12 13:47 5.67018 102.19186 8500 ft 217 kts 186°
2026-04-12 13:48 5.65510 102.19031 8500 ft 217 kts 186°
2026-04-12 13:48 5.64003 102.18877 8500 ft 217 kts 186°
2026-04-12 13:48 5.62505 102.18725 8498 ft 212 kts 186°
2026-04-12 13:48 5.61063 102.18582 8497 ft 205 kts 185°
2026-04-12 13:49 5.59677 102.18450 8494 ft 200 kts 185°
2026-04-12 13:49 5.58300 102.18319 8495 ft 197 kts 185°
2026-04-12 13:49 5.56941 102.18189 8497 ft 195 kts 185°
2026-04-12 13:49 5.55591 102.18061 8498 ft 194 kts 185°
2026-04-12 13:50 5.54248 102.17934 8498 ft 193 kts 185°
2026-04-12 13:50 5.52912 102.17806 8500 ft 193 kts 185°
2026-04-12 13:50 5.51579 102.17676 8499 ft 192 kts 185°
2026-04-12 13:50 5.50249 102.17544 8502 ft 192 kts 185°
2026-04-12 13:51 5.48915 102.17409 8502 ft 193 kts 185°
2026-04-12 13:51 5.47575 102.17275 8502 ft 194 kts 185°
2026-04-12 13:51 5.46233 102.17140 8502 ft 194 kts 185°
2026-04-12 13:51 5.44887 102.17003 8501 ft 195 kts 185°
2026-04-12 13:52 5.43538 102.16866 8498 ft 194 kts 186°
2026-04-12 13:52 5.42215 102.16731 8499 ft 193 kts 186°
2026-04-12 13:52 5.40880 102.16595 8499 ft 192 kts 186°
2026-04-12 13:52 5.39547 102.16460 8500 ft 192 kts 186°
2026-04-12 13:53 5.38217 102.16328 8501 ft 192 kts 186°
2026-04-12 13:53 5.36890 102.16193 8499 ft 192 kts 186°
2026-04-12 13:53 5.35562 102.16058 8500 ft 192 kts 186°
2026-04-12 13:53 5.34236 102.15924 8500 ft 192 kts 186°
2026-04-12 13:54 5.32907 102.15790 8500 ft 192 kts 186°
2026-04-12 13:54 5.31579 102.15655 8500 ft 192 kts 186°
2026-04-12 13:54 5.30250 102.15520 8500 ft 192 kts 186°
2026-04-12 13:54 5.28923 102.15386 8500 ft 191 kts 186°
2026-04-12 13:55 5.27596 102.15252 8500 ft 191 kts 186°
2026-04-12 13:55 5.26272 102.15118 8500 ft 191 kts 186°
2026-04-12 13:55 5.24965 102.14986 8500 ft 191 kts 186°
2026-04-12 13:55 5.23642 102.14852 8502 ft 190 kts 186°
2026-04-12 13:56 5.22320 102.14720 8500 ft 190 kts 186°
2026-04-12 13:56 5.21000 102.14588 8500 ft 190 kts 186°
2026-04-12 13:56 5.19688 102.14456 8500 ft 189 kts 186°
2026-04-12 13:56 5.18375 102.14325 8500 ft 189 kts 187°
2026-04-12 13:57 5.17087 102.14195 8500 ft 188 kts 187°
2026-04-12 13:57 5.15783 102.14064 8500 ft 188 kts 187°
2026-04-12 13:57 5.14486 102.13934 8501 ft 187 kts 187°
2026-04-12 13:57 5.13193 102.13804 8500 ft 187 kts 187°
2026-04-12 13:58 5.11899 102.13675 8500 ft 187 kts 187°
2026-04-12 13:58 5.10605 102.13545 8500 ft 187 kts 187°
2026-04-12 13:58 5.09313 102.13414 8500 ft 187 kts 187°
2026-04-12 13:58 5.08021 102.13284 8500 ft 187 kts 187°
2026-04-12 13:59 5.06727 102.13153 8500 ft 187 kts 187°
2026-04-12 13:59 5.05431 102.13022 8500 ft 187 kts 187°
2026-04-12 13:59 5.04136 102.12891 8500 ft 187 kts 187°
2026-04-12 13:59 5.02839 102.12759 8500 ft 187 kts 187°
2026-04-12 14:00 5.01543 102.12628 8500 ft 187 kts 187°
2026-04-12 14:00 5.00245 102.12496 8500 ft 187 kts 187°
2026-04-12 14:00 4.98948 102.12365 8500 ft 187 kts 187°
2026-04-12 14:00 4.97653 102.12234 8500 ft 187 kts 187°
2026-04-12 14:01 4.96372 102.12104 8500 ft 187 kts 187°
2026-04-12 14:01 4.95074 102.11973 8500 ft 188 kts 187°
2026-04-12 14:01 4.93776 102.11841 8500 ft 187 kts 187°
2026-04-12 14:01 4.92478 102.11709 8500 ft 187 kts 187°
2026-04-12 14:02 4.91179 102.11578 8500 ft 187 kts 187°
2026-04-12 14:02 4.89884 102.11447 8500 ft 187 kts 187°
2026-04-12 14:02 4.88587 102.11316 8500 ft 187 kts 187°
2026-04-12 14:02 4.87291 102.11185 8500 ft 187 kts 187°
2026-04-12 14:03 4.85995 102.11054 8500 ft 187 kts 187°
2026-04-12 14:03 4.84700 102.10923 8500 ft 187 kts 187°
2026-04-12 14:03 4.83403 102.10792 8500 ft 187 kts 187°
2026-04-12 14:03 4.82103 102.10660 8500 ft 188 kts 187°
2026-04-12 14:04 4.80804 102.10528 8500 ft 187 kts 187°
2026-04-12 14:04 4.79521 102.10399 8500 ft 187 kts 187°
2026-04-12 14:04 4.78226 102.10268 8500 ft 187 kts 187°
2026-04-12 14:04 4.76929 102.10137 8500 ft 187 kts 187°
2026-04-12 14:05 4.75631 102.10005 8500 ft 188 kts 187°
2026-04-12 14:05 4.74327 102.09873 8500 ft 188 kts 187°
2026-04-12 14:05 4.71732 102.09612 8500 ft 187 kts 187°
2026-04-12 14:06 4.70434 102.09481 8500 ft 187 kts 187°
2026-04-12 14:06 4.69154 102.09351 8500 ft 187 kts 187°
2026-04-12 14:06 4.67857 102.09220 8500 ft 187 kts 187°
2026-04-12 14:06 4.66561 102.09089 8500 ft 187 kts 187°
2026-04-12 14:07 4.65265 102.08958 8500 ft 187 kts 187°
2026-04-12 14:07 4.63969 102.08827 8500 ft 187 kts 187°
2026-04-12 14:07 4.62674 102.08696 8500 ft 187 kts 187°
2026-04-12 14:07 4.61380 102.08565 8500 ft 187 kts 187°
2026-04-12 14:08 4.60084 102.08434 8500 ft 187 kts 187°
2026-04-12 14:08 4.58788 102.08303 8500 ft 187 kts 187°
2026-04-12 14:08 4.57492 102.08172 8500 ft 187 kts 187°
2026-04-12 14:08 4.56196 102.08041 8500 ft 187 kts 187°
2026-04-12 14:09 4.54915 102.07912 8500 ft 187 kts 187°
2026-04-12 14:09 4.53620 102.07781 8500 ft 187 kts 187°
2026-04-12 14:09 4.52321 102.07649 8500 ft 187 kts 187°
2026-04-12 14:09 4.51025 102.07518 8500 ft 187 kts 187°
2026-04-12 14:10 4.49729 102.07388 8500 ft 187 kts 187°
2026-04-12 14:10 4.48433 102.07257 8500 ft 187 kts 187°
2026-04-12 14:10 4.47155 102.07128 8500 ft 187 kts 187°
2026-04-12 14:10 4.45861 102.06997 8500 ft 187 kts 187°
2026-04-12 14:11 4.44568 102.06867 8500 ft 187 kts 187°
2026-04-12 14:11 4.43275 102.06737 8500 ft 187 kts 187°
2026-04-12 14:11 4.41982 102.06606 8500 ft 187 kts 187°
2026-04-12 14:11 4.40689 102.06476 8500 ft 187 kts 187°
2026-04-12 14:12 4.39395 102.06345 8500 ft 187 kts 187°
2026-04-12 14:12 4.38101 102.06215 8500 ft 187 kts 187°
2026-04-12 14:12 4.36806 102.06084 8500 ft 187 kts 188°
2026-04-12 14:12 4.35511 102.05952 8500 ft 187 kts 187°
2026-04-12 14:13 4.34219 102.05822 8502 ft 187 kts 187°
2026-04-12 14:13 4.32943 102.05695 8612 ft 181 kts 187°
2026-04-12 14:13 4.31682 102.05571 8537 ft 187 kts 187°
2026-04-12 14:13 4.30361 102.05436 8507 ft 189 kts 187°
2026-04-12 14:14 4.29052 102.05300 8503 ft 189 kts 188°
2026-04-12 14:14 4.27759 102.05166 8500 ft 189 kts 187°
2026-04-12 14:14 4.26448 102.05032 8500 ft 189 kts 187°
2026-04-12 14:14 4.25137 102.04896 8501 ft 189 kts 187°
2026-04-12 14:15 4.23827 102.04764 8499 ft 189 kts 187°
2026-04-12 14:15 4.22512 102.04630 8499 ft 190 kts 187°
2026-04-12 14:15 4.21193 102.04494 8499 ft 191 kts 187°
2026-04-12 14:15 4.19870 102.04357 8501 ft 192 kts 187°
2026-04-12 14:16 4.18541 102.04221 8500 ft 192 kts 187°
2026-04-12 14:16 4.17207 102.04084 8501 ft 192 kts 187°
2026-04-12 14:16 4.15873 102.03947 8501 ft 193 kts 187°
2026-04-12 14:16 4.14987 102.03857 8500 ft 193 kts 187°
2026-04-12 14:17 4.13651 102.03720 8501 ft 193 kts 187°
2026-04-12 14:17 4.11877 102.03539 8500 ft 193 kts 187°
2026-04-12 14:17 4.10537 102.03403 8502 ft 193 kts 187°
2026-04-12 14:17 4.09647 102.03312 8500 ft 193 kts 187°
2026-04-12 14:18 4.08311 102.03177 8499 ft 193 kts 187°
2026-04-12 14:18 4.06967 102.03041 8500 ft 193 kts 187°
2026-04-12 14:18 4.05626 102.02906 8500 ft 193 kts 186°
2026-04-12 14:18 4.04290 102.02770 8501 ft 193 kts 187°
2026-04-12 14:19 4.02970 102.02638 8500 ft 193 kts 187°
2026-04-12 14:19 4.01635 102.02504 8500 ft 193 kts 187°
2026-04-12 14:19 4.00301 102.02369 8499 ft 193 kts 187°
2026-04-12 14:19 3.98963 102.02234 8500 ft 193 kts 187°
2026-04-12 14:20 3.97624 102.02099 8500 ft 193 kts 187°
2026-04-12 14:20 3.96288 102.01965 8500 ft 193 kts 187°
2026-04-12 14:20 3.94951 102.01830 8500 ft 193 kts 187°
2026-04-12 14:20 3.93610 102.01694 8500 ft 193 kts 187°
2026-04-12 14:21 3.92274 102.01559 8500 ft 193 kts 187°
2026-04-12 14:21 3.90934 102.01424 8500 ft 193 kts 187°
2026-04-12 14:21 3.89596 102.01288 8500 ft 193 kts 187°
2026-04-12 14:21 3.88259 102.01154 8499 ft 193 kts 187°
2026-04-12 14:22 3.86919 102.01018 8499 ft 193 kts 187°
2026-04-12 14:22 3.85597 102.00885 8500 ft 193 kts 187°
2026-04-12 14:22 3.84257 102.00750 8495 ft 193 kts 187°
2026-04-12 14:22 3.82898 102.00606 8506 ft 203 kts 187°
2026-04-12 14:23 3.81477 102.00456 8477 ft 203 kts 187°
2026-04-12 14:23 3.80081 102.00306 8416 ft 203 kts 187°
2026-04-12 14:23 3.78682 102.00156 8367 ft 201 kts 187°
2026-04-12 14:23 3.77299 102.00012 8355 ft 199 kts 186°
2026-04-12 14:24 3.75931 101.99876 8351 ft 197 kts 186°
2026-04-12 14:24 3.74569 101.99742 8352 ft 196 kts 186°
2026-04-12 14:24 3.73229 101.99612 8353 ft 195 kts 186°
2026-04-12 14:24 3.71883 101.99482 8352 ft 193 kts 186°
2026-04-12 14:25 3.70543 101.99354 8352 ft 193 kts 186°
2026-04-12 14:25 3.69207 101.99225 8352 ft 192 kts 186°
2026-04-12 14:25 3.67875 101.99096 8352 ft 192 kts 186°
2026-04-12 14:25 3.66547 101.98966 8352 ft 191 kts 186°
2026-04-12 14:26 3.65220 101.98837 8352 ft 191 kts 186°
2026-04-12 14:26 3.63895 101.98707 8352 ft 191 kts 186°
2026-04-12 14:26 3.62572 101.98576 8352 ft 191 kts 186°
2026-04-12 14:26 3.61252 101.98445 8352 ft 191 kts 186°
2026-04-12 14:27 3.59931 101.98314 8352 ft 191 kts 186°
2026-04-12 14:27 3.58607 101.98181 8352 ft 191 kts 186°
2026-04-12 14:27 3.57284 101.98049 8352 ft 191 kts 186°
2026-04-12 14:27 3.55978 101.97918 8352 ft 191 kts 186°
2026-04-12 14:28 3.54653 101.97784 8352 ft 191 kts 186°
2026-04-12 14:28 3.53328 101.97651 8352 ft 191 kts 186°
2026-04-12 14:28 3.52003 101.97518 8352 ft 191 kts 186°
2026-04-12 14:28 3.50681 101.97385 8352 ft 191 kts 186°
2026-04-12 14:29 3.49359 101.97253 8352 ft 191 kts 186°
2026-04-12 14:29 3.48038 101.97121 8352 ft 191 kts 186°
2026-04-12 14:29 3.46714 101.96988 8353 ft 192 kts 186°
2026-04-12 14:29 3.45384 101.96853 8353 ft 192 kts 186°
2026-04-12 14:30 3.44054 101.96718 8353 ft 192 kts 186°
2026-04-12 14:30 3.42720 101.96583 8352 ft 193 kts 186°
2026-04-12 14:30 3.41388 101.96448 8352 ft 192 kts 186°
2026-04-12 14:30 3.40055 101.96313 8352 ft 193 kts 186°
2026-04-12 14:31 3.38719 101.96178 8352 ft 193 kts 186°
2026-04-12 14:31 3.37401 101.96046 8352 ft 193 kts 186°
2026-04-12 14:31 3.36066 101.95911 8352 ft 193 kts 186°
2026-04-12 14:31 3.34732 101.95777 8352 ft 193 kts 186°
2026-04-12 14:32 3.33399 101.95644 8352 ft 193 kts 186°
2026-04-12 14:32 3.32063 101.95510 8352 ft 193 kts 186°
2026-04-12 14:32 3.30731 101.95377 8352 ft 192 kts 186°
2026-04-12 14:32 3.29395 101.95244 8352 ft 193 kts 186°
2026-04-12 14:33 3.28062 101.95111 8352 ft 193 kts 186°
2026-04-12 14:33 3.26729 101.94977 8352 ft 193 kts 186°
2026-04-12 14:33 3.25394 101.94844 8352 ft 192 kts 186°
2026-04-12 14:33 3.24061 101.94712 8352 ft 193 kts 186°
2026-04-12 14:34 3.22724 101.94579 8352 ft 192 kts 186°
2026-04-12 14:34 3.21389 101.94447 8352 ft 192 kts 186°
2026-04-12 14:34 3.20058 101.94314 8352 ft 192 kts 186°
2026-04-12 14:34 3.18724 101.94182 8352 ft 192 kts 186°
2026-04-12 14:35 3.17393 101.94049 8352 ft 192 kts 186°
2026-04-12 14:35 3.16085 101.93920 8421 ft 189 kts 186°
2026-04-12 14:35 3.14771 101.93795 8483 ft 187 kts 186°
2026-04-12 14:35 3.13489 101.93676 8497 ft 188 kts 186°
2026-04-12 14:36 3.12182 101.93551 8500 ft 189 kts 186°
2026-04-12 14:36 3.10868 101.93423 8501 ft 190 kts 186°
2026-04-12 14:36 3.09547 101.93290 8501 ft 191 kts 187°
2026-04-12 14:36 3.08224 101.93157 8500 ft 191 kts 187°
2026-04-12 14:37 3.06899 101.93024 8500 ft 192 kts 187°
2026-04-12 14:37 3.05571 101.92891 8500 ft 192 kts 187°
2026-04-12 14:37 3.04241 101.92759 8500 ft 192 kts 186°
2026-04-12 14:37 3.02909 101.92627 8500 ft 192 kts 186°
2026-04-12 14:38 3.02027 101.92540 8500 ft 192 kts 186°
2026-04-12 14:38 3.00246 101.92365 8500 ft 192 kts 186°
2026-04-12 14:38 2.98915 101.92236 8500 ft 192 kts 186°
2026-04-12 14:38 2.97582 101.92108 8500 ft 192 kts 186°
2026-04-12 14:39 2.96249 101.91980 8500 ft 192 kts 186°
2026-04-12 14:39 2.94914 101.91854 8489 ft 192 kts 186°
2026-04-12 14:39 2.93574 101.91726 8249 ft 195 kts 186°
2026-04-12 14:39 2.92222 101.91597 8001 ft 195 kts 186°
2026-04-12 14:40 2.90875 101.91470 7751 ft 194 kts 186°
2026-04-12 14:40 2.89547 101.91348 7504 ft 193 kts 185°
2026-04-12 14:40 2.88208 101.91231 7253 ft 193 kts 185°
2026-04-12 14:40 2.86872 101.91118 7002 ft 192 kts 185°
2026-04-12 14:41 2.85537 101.91010 6752 ft 192 kts 185°
2026-04-12 14:41 2.84205 101.90908 6502 ft 192 kts 185°
2026-04-12 14:41 2.82871 101.90816 6252 ft 192 kts 184°
2026-04-12 14:41 2.81537 101.90740 6002 ft 192 kts 183°
2026-04-12 14:42 2.80234 101.90701 5748 ft 184 kts 181°
2026-04-12 14:42 2.78977 101.90710 5493 ft 178 kts 183°
2026-04-12 14:42 2.77778 101.90537 5248 ft 172 kts 191°
2026-04-12 14:42 2.76620 101.90299 4996 ft 168 kts 192°
2026-04-12 14:43 2.75496 101.90069 4748 ft 166 kts 191°
2026-04-12 14:43 2.74364 101.89855 4498 ft 165 kts 190°
2026-04-12 14:43 2.73234 101.89658 4246 ft 164 kts 189°
2026-04-12 14:43 2.72106 101.89473 3995 ft 164 kts 189°
2026-04-12 14:44 2.70987 101.89294 3745 ft 162 kts 189°
2026-04-12 14:44 2.69880 101.89120 3493 ft 160 kts 189°
2026-04-12 14:44 2.68781 101.88948 3242 ft 159 kts 188°
2026-04-12 14:44 2.67693 101.88779 2990 ft 158 kts 188°
2026-04-12 14:45 2.66610 101.88611 2740 ft 156 kts 188°
2026-04-12 14:45 2.65539 101.88447 2490 ft 155 kts 188°
2026-04-12 14:45 2.64505 101.88162 2211 ft 156 kts 207°
2026-04-12 14:45 2.63677 101.87489 2000 ft 152 kts 223°
2026-04-12 14:46 2.62918 101.86755 1778 ft 150 kts 223°
2026-04-12 14:46 2.62186 101.86041 1647 ft 143 kts 223°
2026-04-12 14:46 2.61504 101.85380 1593 ft 133 kts 225°